Location: Newark
(47.5833°N, 8.1500°E)
Time: 08:34:26
(UTC+00:00)

Vanguard 1 - Pass Details

Date: 27 October 2020
Orbit: 650 x 3833 km, 34.2° (Epoch: 29 November)

Event Time Altitude Azimuth Distance (km) Brightness Sun altitude
Rises 09:01:09 0° 178° (S) 7,069 15.4 22.8°
Reaches altitude 10° 09:08:45 10° 160° (SSE) 6,524 16.0 23.6°
Maximum altitude 09:20:00 17° 129° (SE) 6,319 15.8 24.5°
Drops below altitude 10° 09:31:37 10° 98° (E) 6,862 14.9 25.5°
Sets 09:39:46 0° 82° (E) 7,609 14.8 26.1°
